QPF
0.03 0.01 0.01 0.00 0.00 0.00 0.00 0.00 0.00 0.00 0.00 0.00 0.00 0.01 0.11 0.03 0.10 0.05 0.00 0.00 0.00 0.01 0.00 0.00 0.00 0.01 0.00 0.00 0.00 0.00 0.00 0.02 0.02 0.02 0.00 0.02 0.01 0.01 0.00 0.00 0.00 0.00 0.00
0.06 0.05 0.09 0.12 0.02 0.00 0.00 0.00 0.00 0.00 0.00 0.00 0.00 0.00 0.00 0.01 0.08 0.04 0.01 0.00 0.02 0.07 0.00 0.00 0.00 0.00 0.00 0.00 0.00 0.00 0.00 0.01 0.02 0.01 0.03 0.00 0.00 0.00 0.00 0.00 0.00 0.01 0.03
0.08 0.14 0.22 0.22 0.13 0.04 0.00 0.00 0.00 0.00 0.00 0.00 0.00 0.00 0.00 0.00 0.02 0.04 0.06 0.05 0.00 0.00 0.00 0.00 0.00 0.00 0.00 0.00 0.00 0.00 0.00 0.02 0.02 0.00 0.01 0.01 0.04 0.01 0.02 0.00 0.00 0.02 0.07
0.07 0.09 0.13 0.17 0.12 0.10 0.08 0.04 0.01 0.00 0.00 0.00 0.00 0.00 0.00 0.00 0.00 0.01 0.07 0.04 0.05 0.01 0.00 0.00 0.00 0.00 0.00 0.00 0.00 0.00 0.00 0.00 0.00 0.00 0.00 0.01 0.01 0.00 0.00 0.00 0.00 0.00 0.04
0.33 0.30 0.19 0.13 0.17 0.11 0.12 0.07 0.08 0.01 0.00 0.00 0.00 0.00 0.00 0.00 0.00 0.00 0.00 0.01 0.03 0.01 0.00 0.00 0.00 0.00 0.00 0.00 0.00 0.00 0.00 0.00 0.00 0.01 0.09 0.04 0.00 0.00 0.00 0.00 0.00 0.00 0.00
0.10 0.24 0.31 0.22 0.24 0.17 0.20 0.14 0.08 0.07 0.05 0.00 0.00 0.00 0.00 0.00 0.00 0.00 0.00 0.00 0.01 0.01 0.00 0.00 0.00 0.03 0.00 0.00 0.00 0.00 0.00 0.01 0.06 0.00 0.00 0.00 0.00 0.00 0.00 0.00 0.00 0.00 0.00
0.01 0.09 0.17 0.23 0.31 0.45 0.46 0.35 0.15 0.16 0.20 0.22 0.08 0.02 0.00 0.00 0.01 0.03 0.01 0.00 0.00 0.00 0.00 0.00 0.00 0.01 0.03 0.00 0.00 0.01 0.00 0.00 0.00 0.02 0.00 0.00 0.00 0.00 0.00 0.00 0.00 0.00 0.00
0.00 0.00 0.02 0.09 0.18 0.24 0.27 0.40 0.56 0.57 0.45 0.37 0.45 0.26 0.15 0.08 0.04 0.05 0.08 0.01 0.00 0.00 0.00 0.00 0.00 0.00 0.00 0.00 0.00 0.03 0.02 0.00 0.00 0.00 0.00 0.00 0.00 0.00 0.00 0.00 0.00 0.00 0.00
0.00 0.00 0.00 0.00 0.01 0.04 0.06 0.10 0.36 0.59 0.63 0.50 0.42 0.50 0.35 0.27 0.22 0.19 0.20 0.09 0.02 0.00 0.00 0.00 0.00 0.00 0.00 0.00 0.01 0.04 0.06 0.03 0.01 0.00 0.00 0.00 0.00 0.00 0.00 0.00 0.00 0.01 0.02
0.00 0.00 0.00 0.00 0.00 0.00 0.00 0.02 0.16 0.17 0.13 0.12 0.17 0.21 0.27 0.35 0.30 0.21 0.21 0.17 0.03 0.00 0.00 0.00 0.00 0.00 0.01 0.04 0.01 0.01 0.02 0.02 0.02 0.00 0.00 0.00 0.00 0.00 0.00 0.00 0.00 0.00 0.00
0.00 0.00 0.00 0.00 0.00 0.00 0.00 0.00 0.00 0.00 0.00 0.00 0.00 0.01 0.05 0.16 0.25 0.22 0.23 0.19 0.08 0.02 0.00 0.00 0.00 0.00 0.05 0.09 0.12 0.01 0.00 0.01 0.00 0.00 0.00 0.00 0.00 0.00 0.00 0.00 0.00 0.00 0.00
0.00 0.00 0.00 0.00 0.00 0.00 0.00 0.00 0.00 0.00 0.00 0.00 0.00 0.00 0.01 0.06 0.14 0.24 0.25 0.20 0.16 0.07 0.00 0.00 0.00 0.01 0.03 0.06 0.05 0.03 0.06 0.04 0.04 0.00 0.00 0.00 0.00 0.00 0.00 0.00 0.00 0.00 0.00
0.00 0.00 0.00 0.00 0.00 0.00 0.00 0.00 0.00 0.00 0.01 0.00 0.00 0.00 0.00 0.01 0.07 0.16 0.20 0.15 0.18 0.11 0.06 0.02 0.00 0.00 0.00 0.00 0.02 0.05 0.06 0.03 0.05 0.03 0.02 0.00 0.00 0.00 0.00 0.00 0.00 0.00 0.00
0.00 0.00 0.00 0.00 0.00 0.00 0.00 0.00 0.00 0.00 0.02 0.04 0.04 0.02 0.01 0.03 0.10 0.18 0.20 0.23 0.23 0.26 0.26 0.16 0.06 0.04 0.05 0.06 0.08 0.06 0.02 0.01 0.05 0.01 0.00 0.00 0.00 0.00 0.00 0.00 0.00 0.00 0.00
0.00 0.00 0.00 0.00 0.00 0.00 0.00 0.00 0.00 0.00 0.01 0.01 0.03 0.07 0.06 0.08 0.09 0.07 0.05 0.09 0.18 0.23 0.31 0.32 0.30 0.15 0.08 0.15 0.18 0.10 0.02 0.00 0.00 0.00 0.00 0.00 0.00 0.00 0.00 0.00 0.00 0.00 0.00
0.00 0.00 0.00 0.00 0.00 0.00 0.00 0.00 0.00 0.00 0.00 0.00 0.00 0.02 0.12 0.10 0.09 0.07 0.07 0.05 0.08 0.09 0.12 0.14 0.17 0.17 0.08 0.16 0.17 0.13 0.04 0.01 0.00 0.00 0.00 0.00 0.00 0.00 0.00 0.00 0.00 0.00 0.00
0.00 0.00 0.00 0.00 0.00 0.00 0.00 0.00 0.00 0.00 0.00 0.00 0.00 0.00 0.09 0.14 0.04 0.01 0.01 0.00 0.01 0.03 0.06 0.08 0.07 0.10 0.10 0.10 0.14 0.09 0.04 0.05 0.03 0.00 0.00 0.00 0.00 0.00 0.00 0.00 0.00 0.00 0.00
0.00 0.00 0.00 0.00 0.00 0.00 0.00 0.00 0.00 0.00 0.00 0.00 0.00 0.00 0.00 0.01 0.02 0.02 0.00 0.00 0.00 0.00 0.01 0.02 0.04 0.09 0.12 0.06 0.06 0.05 0.05 0.04 0.00 0.00 0.00 0.00 0.00 0.00 0.00 0.00 0.00 0.00 0.00
0.00 0.00 0.00 0.00 0.00 0.00 0.00 0.00 0.00 0.00 0.00 0.00 0.00 0.00 0.00 0.00 0.00 0.00 0.00 0.00 0.00 0.00 0.00 0.01 0.07 0.08 0.09 0.06 0.02 0.01 0.00 0.00 0.00 0.00 0.00 0.00 0.00 0.00 0.00 0.00 0.00 0.00 0.00
0.00 0.00 0.00 0.00 0.00 0.00 0.00 0.00 0.00 0.00 0.00 0.00 0.00 0.00 0.00 0.01 0.00 0.00 0.00 0.00 0.00 0.02 0.01 0.01 0.02 0.11 0.08 0.02 0.00 0.00 0.00 0.00 0.00 0.00 0.00 0.00 0.00 0.00 0.00 0.00 0.00 0.00 0.00
0.00 0.00 0.00 0.00 0.00 0.00 0.00 0.00 0.00 0.00 0.00 0.00 0.00 0.01 0.00 0.00 0.00 0.00 0.00 0.00 0.00 0.00 0.02 0.00 0.01 0.04 0.02 0.00 0.00 0.00 0.00 0.00 0.00 0.00 0.00 0.00 0.00 0.00 0.00 0.00 0.00 0.00 0.00
0.01 0.00 0.00 0.00 0.00 0.00 0.00 0.00 0.00 0.00 0.00 0.01 0.04 0.05 0.02 0.01 0.00 0.00 0.00 0.00 0.00 0.00 0.02 0.04 0.01 0.00 0.01 0.00 0.00 0.00 0.00 0.00 0.00 0.00 0.00 0.00 0.00 0.00 0.00 0.00 0.00 0.00 0.00
0.01 0.01 0.00 0.00 0.00 0.00 0.00 0.00 0.00 0.00 0.00 0.00 0.03 0.05 0.06 0.10 0.03 0.01 0.01 0.00 0.00 0.01 0.03 0.02 0.02 0.02 0.01 0.00 0.00 0.00 0.00 0.00 0.00 0.00 0.00 0.00 0.00 0.00 0.00 0.00 0.00 0.00 0.00
0.01 0.01 0.00 0.00 0.00 0.00 0.00 0.00 0.00 0.00 0.01 0.00 0.00 0.00 0.00 0.04 0.04 0.05 0.07 0.08 0.05 0.00 0.00 0.01 0.02 0.02 0.02 0.00 0.00 0.00 0.00 0.00 0.00 0.00 0.00 0.00 0.00 0.00 0.00 0.00 0.00 0.00 0.00
0.04 0.02 0.00 0.00 0.00 0.00 0.00 0.00 0.00 0.02 0.04 0.03 0.02 0.01 0.00 0.01 0.04 0.07 0.07 0.11 0.09 0.01 0.00 0.01 0.03 0.00 0.00 0.00 0.00 0.00 0.00 0.00 0.00 0.00 0.00 0.00 0.00 0.01 0.01 0.00 0.00 0.00 0.00
0.06 0.04 0.03 0.02 0.00 0.01 0.02 0.01 0.02 0.02 0.06 0.11 0.09 0.09 0.05 0.03 0.06 0.06 0.14 0.15 0.14 0.08 0.02 0.02 0.03 0.00 0.00 0.00 0.00 0.00 0.00 0.00 0.00 0.00 0.00 0.00 0.00 0.01 0.00 0.00 0.00 0.00 0.00
MSLP
1010.93 1011.01 1011.50 1010.98 1011.22 1011.81 1012.04 1012.37 1012.81 1013.06 1013.16 1013.47 1013.76 1014.10 1014.50 1014.74 1014.80 1015.18 1015.42 1015.68 1015.98 1015.97 1016.08 1016.30 1016.36 1016.36 1016.45 1016.60 1016.82 1016.88 1017.00 1017.26 1017.40 1017.09 1016.48 1016.11 1015.92 1015.72 1015.60 1015.65 1015.67 1015.81 1015.77
1010.78 1010.03 1011.44 1011.56 1011.30 1011.37 1011.63 1011.63 1012.02 1012.33 1012.56 1012.74 1013.06 1013.44 1013.72 1013.99 1014.37 1014.66 1015.01 1015.14 1015.49 1015.78 1015.78 1015.99 1016.08 1016.17 1016.28 1016.16 1016.37 1016.53 1016.75 1016.85 1017.02 1016.94 1016.68 1016.44 1016.18 1015.85 1015.61 1015.72 1015.47 1015.26 1015.36
1010.67 1010.60 1010.94 1011.31 1011.01 1010.87 1010.94 1010.95 1011.29 1011.64 1011.87 1012.08 1012.41 1012.70 1013.04 1013.29 1013.63 1014.03 1014.28 1014.59 1014.76 1015.03 1015.33 1015.51 1015.51 1015.62 1015.84 1015.82 1015.94 1016.15 1016.24 1016.35 1016.47 1016.48 1016.52 1016.20 1016.23 1015.88 1015.77 1015.70 1015.55 1015.36 1015.16
1009.78 1009.60 1010.58 1010.41 1010.10 1009.98 1009.84 1010.03 1010.32 1010.76 1011.13 1011.23 1011.39 1011.70 1012.08 1012.40 1012.77 1013.10 1013.49 1013.78 1014.09 1014.28 1014.49 1014.72 1014.84 1014.95 1015.11 1015.25 1015.47 1015.59 1015.75 1016.01 1016.21 1016.28 1016.34 1016.17 1016.03 1015.76 1015.75 1015.76 1015.65 1015.39 1015.22
1011.48 1010.80 1009.83 1009.73 1009.27 1008.95 1009.39 1009.41 1009.38 1009.81 1009.82 1009.86 1010.41 1010.73 1011.07 1011.45 1011.78 1012.17 1012.55 1012.86 1013.24 1013.59 1013.81 1013.94 1014.10 1014.15 1014.31 1014.55 1014.92 1015.03 1015.25 1015.45 1015.69 1015.98 1016.27 1015.95 1015.78 1015.86 1015.84 1015.47 1015.45 1015.20 1014.82
1011.13 1010.54 1009.79 1008.37 1009.06 1008.67 1008.25 1008.52 1008.62 1008.34 1008.66 1008.92 1009.25 1009.65 1010.16 1010.39 1010.64 1011.15 1011.69 1012.19 1012.57 1012.91 1013.07 1013.24 1013.41 1013.46 1013.67 1013.87 1014.05 1014.21 1014.28 1014.61 1014.96 1015.40 1015.31 1015.43 1015.22 1015.18 1015.21 1015.20 1015.18 1015.26 1015.17
1010.80 1010.23 1009.69 1009.37 1009.20 1009.06 1008.65 1007.80 1007.78 1007.37 1007.59 1007.81 1008.48 1008.90 1009.21 1009.42 1009.86 1010.59 1011.19 1011.62 1011.96 1012.13 1012.29 1012.57 1012.87 1012.87 1013.06 1013.27 1013.36 1013.53 1013.71 1013.79 1013.80 1014.17 1014.55 1014.45 1014.46 1014.49 1014.70 1014.77 1014.79 1014.86 1014.81
1009.91 1010.17 1009.93 1009.56 1009.34 1008.96 1008.70 1008.81 1008.40 1007.07 1007.71 1008.12 1007.69 1007.94 1008.75 1008.95 1009.29 1009.71 1010.35 1010.87 1011.25 1011.47 1011.57 1011.84 1012.11 1012.18 1012.26 1012.59 1012.95 1013.10 1013.10 1013.13 1013.19 1013.45 1013.57 1013.49 1013.52 1013.76 1013.97 1014.01 1014.15 1014.40 1014.54
1009.88 1009.45 1009.26 1009.00 1008.78 1008.52 1008.54 1008.62 1008.51 1008.38 1007.46 1007.27 1007.58 1007.22 1008.74 1009.89 1010.19 1010.43 1011.06 1010.79 1010.50 1010.49 1010.83 1011.09 1011.33 1011.60 1011.65 1011.82 1012.35 1012.56 1012.63 1012.54 1012.60 1012.78 1013.02 1013.04 1013.08 1013.16 1013.27 1013.78 1014.04 1014.48 1014.64
1009.96 1009.52 1008.81 1008.49 1008.43 1008.24 1008.10 1008.35 1008.29 1008.05 1008.11 1007.54 1007.21 1005.51 1007.90 1009.82 1009.44 1009.46 1009.56 1010.51 1010.54 1010.06 1009.94 1010.14 1010.38 1010.67 1010.94 1011.26 1011.61 1011.95 1012.20 1012.13 1012.42 1012.74 1012.90 1012.96 1012.89 1013.01 1013.13 1013.27 1013.64 1014.15 1014.59
1009.22 1009.01 1008.71 1008.32 1008.01 1007.76 1007.77 1008.00 1008.14 1008.25 1008.17 1007.99 1007.63 1007.00 1006.67 1006.86 1006.78 1006.71 1007.90 1009.15 1009.59 1009.61 1009.33 1009.31 1009.26 1009.53 1010.05 1010.41 1010.83 1011.04 1011.10 1011.24 1011.66 1012.02 1012.29 1012.59 1012.81 1012.94 1013.02 1013.14 1013.30 1013.60 1014.06
1008.67 1008.36 1008.13 1007.88 1007.68 1007.45 1007.50 1007.53 1007.64 1007.72 1008.07 1008.08 1008.10 1007.56 1007.10 1006.62 1007.02 1007.74 1007.99 1008.57 1008.62 1009.65 1008.81 1008.33 1008.43 1008.57 1009.00 1009.46 1009.95 1010.01 1010.18 1010.54 1011.10 1011.56 1011.98 1012.25 1012.50 1012.69 1012.65 1012.94 1013.00 1013.23 1013.30
1008.24 1007.86 1007.50 1007.19 1007.07 1006.93 1006.98 1006.98 1007.10 1007.01 1007.24 1007.22 1007.21 1007.32 1006.59 1006.26 1007.02 1007.46 1008.32 1008.46 1007.85 1009.02 1008.74 1008.08 1008.03 1008.09 1008.01 1008.46 1008.85 1009.09 1009.64 1010.13 1010.43 1010.97 1011.23 1011.45 1011.50 1011.67 1012.09 1012.70 1012.87 1013.01 1013.09
1007.60 1007.34 1006.90 1006.48 1006.28 1006.21 1006.15 1006.12 1006.07 1006.11 1006.05 1006.03 1005.78 1005.63 1005.31 1005.37 1006.20 1007.19 1007.66 1007.67 1007.85 1008.02 1007.67 1008.03 1007.61 1007.39 1007.82 1007.96 1008.63 1008.98 1009.15 1009.25 1009.60 1009.98 1010.32 1010.63 1011.03 1011.57 1011.95 1012.23 1012.85 1013.15 1013.30
1006.78 1006.54 1006.20 1005.84 1005.50 1005.33 1005.20 1005.20 1005.09 1004.93 1004.86 1004.75 1004.63 1004.55 1004.64 1004.77 1005.14 1005.53 1005.50 1006.54 1006.93 1008.36 1007.53 1007.09 1007.41 1007.41 1007.67 1008.29 1008.37 1008.12 1008.37 1008.74 1009.08 1009.35 1009.74 1010.19 1010.77 1011.07 1011.39 1011.75 1012.30 1012.94 1013.11
1006.02 1005.64 1005.31 1004.98 1004.61 1004.47 1004.44 1004.41 1004.32 1004.30 1003.98 1004.18 1003.96 1004.05 1003.65 1003.70 1004.35 1004.46 1004.29 1004.58 1004.65 1006.66 1006.93 1006.96 1006.07 1006.33 1006.66 1007.33 1007.70 1007.88 1007.91 1008.11 1008.27 1008.79 1009.29 1009.67 1010.23 1010.74 1011.15 1011.62 1011.80 1012.23 1012.66
1005.09 1004.72 1004.35 1004.11 1003.88 1003.90 1003.81 1004.08 1003.98 1003.64 1003.61 1003.70 1003.80 1003.70 1004.05 1004.41 1004.86 1004.31 1003.14 1002.72 1005.09 1005.12 1005.42 1005.52 1003.41 1004.38 1005.79 1006.28 1006.63 1007.01 1007.03 1007.17 1007.57 1008.21 1008.85 1009.35 1009.88 1010.31 1010.82 1011.24 1011.51 1011.85 1012.12
1003.85 1003.68 1003.50 1003.17 1003.08 1003.06 1003.00 1003.07 1003.14 1003.21 1003.30 1003.10 1003.13 1003.51 1003.70 1003.97 1004.11 1004.40 1004.58 1005.12 1005.70 1005.23 1005.50 1004.39 1004.19 1004.60 1004.76 1005.24 1005.56 1005.96 1006.26 1006.65 1007.13 1007.67 1008.23 1008.71 1009.33 1009.73 1010.38 1010.84 1011.14 1011.26 1011.40
1002.94 1002.66 1002.37 1002.20 1002.11 1002.06 1002.10 1002.18 1002.29 1002.25 1002.29 1002.25 1002.63 1003.34 1003.57 1003.86 1003.84 1003.90 1004.04 1003.94 1004.13 1004.48 1004.21 1003.99 1003.41 1003.64 1003.51 1003.97 1004.57 1004.70 1005.04 1005.90 1006.40 1006.91 1007.66 1008.07 1008.59 1009.04 1009.52 1009.94 1010.10 1010.35 1010.60
1001.79 1001.57 1001.41 1001.27 1001.27 1001.26 1001.23 1001.43 1001.51 1001.44 1001.33 1001.38 1001.52 1001.73 1002.67 1003.73 1004.08 1003.80 1003.55 1003.27 1003.34 1003.14 1003.00 1002.64 1002.78 1002.79 1002.96 1002.94 1003.26 1003.74 1004.20 1005.09 1005.66 1006.25 1006.90 1007.39 1007.89 1008.26 1008.73 1009.25 1009.64 1009.79 1010.05
1000.71 1000.41 1000.32 1000.32 1000.44 1000.48 1000.41 1000.54 1000.58 1000.76 1000.69 1000.50 1000.39 1000.47 1000.86 1001.60 1001.60 1001.88 1002.08 1002.26 1002.09 1002.32 1002.17 1002.23 1001.52 1001.70 1001.98 1002.25 1002.32 1002.85 1003.54 1004.26 1005.02 1005.63 1006.21 1006.68 1006.95 1007.67 1008.03 1008.55 1008.84 1009.13 1009.45
999.80 999.56 999.50 999.58 999.84 999.93 999.69 999.60 999.72 999.82 999.79 999.82 999.69 999.90 999.86 1000.41 1000.41 1000.44 1000.77 1000.73 1000.58 1000.84 1000.70 1000.75 1000.77 1001.07 1001.40 1001.73 1001.90 1002.10 1002.92 1003.61 1004.23 1004.83 1005.46 1005.83 1006.18 1006.65 1007.19 1007.84 1008.38 1008.64 1009.00
999.12 998.93 998.83 998.94 999.12 999.22 999.08 998.98 998.96 998.89 998.85 998.63 998.74 998.91 999.14 999.19 999.21 999.24 999.35 999.53 999.74 999.66 999.38 999.42 999.89 1000.58 1001.21 1001.28 1001.39 1001.63 1002.23 1002.78 1003.22 1003.80 1004.57 1005.01 1005.57 1006.23 1006.70 1007.15 1007.70 1008.15 1008.52
998.81 998.29 998.15 998.25 998.45 998.55 998.51 998.49 998.27 998.06 997.96 997.81 997.75 997.68 997.85 998.21 998.36 998.34 998.46 998.59 999.02 999.00 999.24 999.14 999.48 1000.12 1000.78 1000.99 1001.02 1001.22 1001.53 1002.02 1002.37 1003.05 1003.49 1004.26 1004.95 1005.86 1006.21 1006.82 1007.01 1007.44 1008.00
998.47 997.95 997.75 997.73 997.81 997.87 997.85 997.68 997.51 997.35 997.38 997.00 996.70 996.78 997.05 997.73 997.89 997.98 997.54 997.58 998.05 998.45 998.55 998.53 998.88 999.30 999.50 1000.33 1000.67 1000.94 1000.96 1001.52 1002.00 1002.53 1003.34 1003.94 1004.69 1005.45 1005.95 1006.50 1006.65 1006.90 1007.28
998.01 997.78 997.61 997.40 997.22 997.12 997.07 997.00 996.84 996.64 996.50 996.24 996.43 996.53 996.85 996.91 997.10 997.09 996.98 997.41 997.64 997.80 998.02 998.15 998.51 999.06 999.18 1000.25 1000.75 1000.82 1001.32 1001.47 1002.14 1002.38 1003.21 1004.21 1005.04 1005.60 1005.89 1006.25 1006.62 1007.20 1007.68
Thickness
5802 5802 5791 5793 5793 5788 5787 5784 5780 5780 5781 5778 5773 5771 5767 5766 5767 5763 5763 5764 5763 5764 5766 5767 5767 5770 5769 5771 5771 5771 5771 5768 5761 5770 5779 5782 5782 5783 5784 5783 5782 5781 5781
5796 5803 5791 5786 5786 5784 5783 5786 5783 5780 5781 5781 5777 5772 5770 5769 5767 5764 5762 5764 5762 5760 5763 5763 5764 5766 5767 5770 5770 5770 5769 5769 5764 5763 5769 5773 5775 5780 5780 5779 5779 5779 5780
5787 5789 5786 5783 5784 5785 5785 5786 5783 5780 5779 5779 5778 5774 5771 5770 5768 5765 5764 5762 5763 5761 5760 5761 5762 5763 5763 5767 5768 5768 5767 5767 5765 5763 5763 5770 5769 5774 5774 5775 5775 5776 5777
5791 5795 5784 5784 5787 5788 5789 5788 5787 5782 5780 5779 5779 5777 5774 5773 5771 5767 5765 5763 5761 5762 5762 5762 5763 5764 5765 5765 5765 5765 5765 5763 5762 5760 5759 5761 5764 5768 5769 5767 5765 5769 5770
5763 5775 5781 5783 5786 5790 5788 5788 5788 5785 5785 5785 5780 5779 5777 5774 5772 5770 5767 5765 5762 5760 5760 5762 5763 5765 5766 5766 5763 5762 5762 5760 5758 5757 5754 5757 5758 5759 5759 5765 5763 5766 5768
5747 5761 5772 5779 5780 5784 5788 5788 5789 5789 5788 5785 5784 5781 5777 5777 5775 5771 5768 5764 5763 5761 5760 5760 5762 5763 5763 5763 5764 5764 5764 5760 5757 5754 5756 5755 5757 5759 5760 5759 5759 5756 5752
5737 5744 5758 5765 5766 5768 5776 5782 5783 5786 5787 5785 5780 5779 5777 5777 5773 5767 5763 5761 5759 5761 5761 5760 5759 5762 5760 5761 5762 5762 5762 5763 5765 5761 5756 5757 5757 5759 5758 5755 5754 5752 5751
5732 5729 5735 5744 5750 5756 5756 5757 5758 5759 5763 5766 5775 5774 5771 5771 5769 5766 5761 5759 5756 5756 5758 5758 5759 5761 5762 5760 5757 5758 5761 5763 5763 5762 5761 5762 5762 5759 5756 5754 5751 5749 5748
5712 5720 5725 5731 5737 5743 5745 5744 5748 5746 5740 5754 5744 5760 5757 5749 5750 5754 5748 5752 5754 5756 5755 5756 5757 5757 5760 5760 5757 5755 5757 5760 5762 5762 5760 5759 5758 5756 5754 5749 5743 5740 5738
5692 5697 5711 5718 5721 5725 5731 5731 5734 5738 5740 5742 5728 5741 5734 5739 5747 5752 5754 5748 5748 5751 5755 5755 5755 5756 5756 5756 5757 5753 5751 5755 5757 5756 5756 5755 5754 5751 5750 5748 5744 5738 5735
5688 5690 5693 5700 5707 5713 5717 5719 5720 5722 5728 5730 5733 5741 5749 5757 5762 5764 5754 5749 5750 5747 5748 5751 5757 5757 5754 5754 5754 5756 5756 5757 5756 5754 5753 5751 5749 5747 5745 5745 5743 5740 5733
5682 5685 5687 5690 5694 5700 5703 5707 5710 5713 5713 5716 5718 5729 5740 5751 5751 5746 5743 5736 5742 5735 5744 5750 5753 5755 5755 5754 5753 5757 5755 5755 5752 5750 5747 5745 5743 5741 5741 5741 5739 5737 5737
5674 5679 5684 5685 5687 5688 5691 5697 5700 5705 5706 5710 5716 5721 5732 5739 5736 5736 5726 5726 5734 5725 5735 5745 5742 5744 5753 5751 5752 5753 5751 5751 5748 5745 5744 5743 5743 5742 5737 5734 5733 5732 5731
5668 5671 5676 5680 5682 5683 5685 5691 5696 5699 5704 5707 5714 5721 5730 5733 5725 5719 5721 5724 5722 5725 5731 5730 5735 5740 5742 5747 5744 5744 5747 5749 5747 5745 5743 5742 5738 5732 5728 5729 5725 5724 5722
5660 5663 5668 5673 5678 5679 5681 5685 5689 5697 5701 5706 5711 5716 5718 5720 5721 5721 5723 5715 5715 5707 5718 5729 5725 5731 5735 5734 5737 5743 5743 5743 5742 5740 5740 5736 5730 5727 5725 5725 5722 5717 5715
5652 5656 5660 5665 5672 5674 5676 5679 5683 5689 5694 5695 5702 5705 5713 5711 5709 5710 5709 5712 5718 5697 5707 5706 5725 5726 5731 5731 5731 5733 5737 5738 5739 5737 5734 5732 5725 5722 5721 5719 5719 5715 5710
5643 5648 5653 5656 5662 5664 5668 5669 5673 5682 5684 5688 5691 5695 5694 5691 5696 5701 5712 5716 5698 5703 5704 5702 5717 5723 5725 5727 5732 5731 5734 5737 5737 5734 5729 5724 5722 5720 5717 5715 5713 5711 5708
5638 5639 5644 5650 5653 5656 5659 5663 5666 5673 5677 5685 5687 5686 5687 5684 5688 5690 5693 5688 5691 5697 5693 5704 5712 5720 5721 5726 5731 5730 5731 5732 5733 5730 5726 5724 5721 5719 5714 5710 5707 5707 5706
5630 5633 5637 5640 5647 5650 5653 5654 5659 5667 5674 5677 5679 5675 5674 5673 5677 5680 5685 5699 5700 5697 5703 5704 5712 5714 5725 5728 5729 5734 5734 5730 5729 5728 5722 5721 5719 5717 5713 5710 5709 5708 5706
5626 5628 5629 5633 5637 5642 5647 5648 5653 5660 5668 5673 5679 5682 5675 5669 5670 5676 5684 5694 5697 5705 5704 5705 5706 5715 5721 5729 5732 5732 5730 5727 5727 5724 5721 5719 5717 5715 5711 5707 5704 5705 5702
5620 5625 5627 5630 5632 5637 5642 5646 5649 5654 5660 5668 5677 5683 5682 5682 5685 5686 5688 5690 5696 5698 5699 5696 5713 5718 5722 5726 5730 5729 5728 5727 5723 5721 5718 5717 5718 5711 5710 5706 5705 5702 5699
5613 5620 5623 5626 5627 5631 5638 5645 5648 5653 5659 5665 5673 5678 5679 5682 5686 5690 5691 5696 5700 5704 5710 5712 5714 5716 5720 5721 5725 5731 5727 5724 5722 5720 5717 5716 5716 5714 5710 5705 5701 5698 5694
5611 5616 5621 5623 5626 5628 5634 5641 5647 5653 5660 5668 5673 5678 5681 5685 5690 5693 5697 5699 5704 5710 5718 5720 5720 5715 5713 5719 5725 5729 5726 5724 5725 5723 5716 5715 5711 5707 5705 5702 5698 5693 5689
5609 5616 5620 5622 5625 5628 5632 5637 5644 5650 5659 5667 5675 5681 5686 5687 5690 5694 5700 5703 5705 5710 5713 5719 5720 5715 5709 5712 5721 5728 5729 5727 5726 5721 5720 5713 5708 5701 5700 5696 5696 5692 5683
5609 5614 5619 5623 5626 5628 5633 5638 5643 5649 5656 5667 5676 5680 5684 5681 5681 5692 5701 5707 5709 5710 5714 5719 5718 5718 5720 5716 5719 5724 5724 5721 5719 5716 5712 5707 5702 5696 5693 5690 5688 5684 5680
5611 5614 5617 5622 5626 5629 5633 5638 5643 5650 5657 5665 5668 5673 5674 5680 5684 5691 5697 5701 5705 5709 5712 5715 5718 5718 5723 5718 5715 5714 5713 5715 5711 5710 5703 5695 5689 5685 5684 5681 5677 5668 5662